Find Kosmos-2475

NORAD ID: 37867 Int'l Des: 2011-064 Owner: KVR/IACG Country: RU Constellation: GLONASS operational
MEOCIRCULAR

Aktuelle Ansicht

3D-Globus wird geladen...

Über Kosmos-2475

Beschreibung wird geladen...

Nächste Überflüge

Passes for default location (London). Set your location on the main map for personalized predictions.

Höhenverlauf

Loading altitude history...

Zweizeiliger Elementsatz

1 37867U 11064A 26147.55988468 -.00000060 00000-0 00000+0 0 9992
2 37867 65.2594 73.5669 0023268 240.7333 299.2501 2.13103641113322
Epoch: 27. Mai 2026 • Age: 70 hours

Aktueller Status

Höhe 19094.4 km
Geschwindigkeit 3.96 km/s
Subsatellitenpunkt -60.44°S, 109.85°W
Startdatum 4. Nov. 2011
Alter 14.5 years
Typ other

Technische Details

Klassifizierung Payload
Masse 1450.00 kg
Trockenmasse 1200.00 kg
Gesamtmasse 1450.00 kg
Länge 4.00 m
Durchmesser 1.50 m
Spannweite 7.80 m
Form Cyl + Ant + 2 Pan
Hersteller RESH
Bus-Typ Uragan
Phasenstatus In Orbit
Besitzer/Staat KVR/IACG/RU

Most Searched